Location: Bathurst
(33.4193°S, 149.5775°E)
Time: 09:52:34
(UTC+10:00)

Vanguard 1 Rocket - Pass Details

Date: 21 June 2021
Orbit: 650 x 4226 km, 34.3° (Epoch: 02 August)

Event Time Altitude Azimuth Distance (km) Brightness Sun altitude
Rises 07:28:34 0° 310° (NW) 8,462 12.1 3.4°
Reaches altitude 10° 07:34:44 10° 312° (NW) 7,374 11.9 4.5°
Maximum altitude 07:58:37 62° 26° (NNE) 3,406 10.8 8.6°
Drops below altitude 10° 08:12:17 10° 102° (ESE) 4,547 11.7 10.9°
Sets 08:15:04 0° 105° (ESE) 5,192 11.8 11.4°
